Location: Rostock
(54.0884°N, 12.1234°E)
Time: 14:48:14
(UTC+01:00)

ISS - Pass Details

Date: 09 January 2018
Orbit: 402 x 407 km, 51.6° (Epoch: 18 January)

Event Time Altitude Azimuth Distance (km) Brightness Sun altitude
Exits shadow 05:48:47 43° 150° (SSE) 587 -2.8 -22.0°
Drops below altitude 10° 05:51:22 10° 113° (ESE) 1,468 0.1 -21.7°
Sets 05:53:29 0° 108° (ESE) 2,329 1.5 -21.4°
